����,���ϕ���(m/s),���ϕ���,�ő�u�ԕ���(m/s),�ő啗��������,�C��(��),���x(%),10���Ԉړ��ώZ�J��(mm),1���Ԉړ��ώZ�J��(mm),���J��(mm),�݌v�J��(mm)
2021-03-22T00:00:00+09:00,0.8,�k,5.4,��,8.6,95.5,0,0,22,22
2021-03-22T00:01:00+09:00,0.8,�k,5.4,��,8.5,95.3,0,0,0,22
2021-03-22T00:02:00+09:00,0.8,�k�k��,5.4,��,8.5,95.1,0,0,0,22
2021-03-22T00:03:00+09:00,0.8,�k��,5.4,��,8.6,95.2,0,0,0,22
2021-03-22T00:04:00+09:00,1,�k��,5.4,��,8.7,95.4,0,0,0,22
2021-03-22T00:05:00+09:00,1,�k��,5.4,��,8.7,95.3,0,0,0,22
2021-03-22T00:06:00+09:00,1,�k��,5.4,��,8.7,95.1,0,0,0,22
2021-03-22T00:07:00+09:00,0.9,�k��,5.4,��,8.8,95.2,0,0,0,22
2021-03-22T00:08:00+09:00,1.1,�k��,5.4,��,8.8,94.9,0,0,0,22
2021-03-22T00:09:00+09:00,1,�k��,3.4,��,8.8,94.2,0,0,0,22
2021-03-22T00:10:00+09:00,1,�k��,3.4,��,8.8,93.4,0,0,0,22
2021-03-22T00:11:00+09:00,1,�k��,3.4,��,8.7,92.7,0,0,0,22
2021-03-22T00:12:00+09:00,1.1,�k��,3.4,��,8.9,92,0,0,0,22
2021-03-22T00:13:00+09:00,1.2,�k��,3.7,�k��,8.9,91.4,0,0,0,22
2021-03-22T00:14:00+09:00,1.2,�k�k��,4.2,�k��,8.9,90.5,0,0,0,22
2021-03-22T00:15:00+09:00,1.2,�k�k��,4.2,�k��,8.9,89.6,0,0,0,22
2021-03-22T00:16:00+09:00,1.3,�k�k��,4.2,�k��,8.9,89.4,0,0,0,22
2021-03-22T00:17:00+09:00,1.3,�k�k��,4.2,�k��,8.9,89.2,0,0,0,22
2021-03-22T00:18:00+09:00,1.3,�k�k��,4.2,�k��,8.9,89.3,0,0,0,22
2021-03-22T00:19:00+09:00,1.2,�k�k��,4.2,�k��,9,88.7,0,0,0,22
2021-03-22T00:20:00+09:00,1.2,�k�k��,4.2,�k��,8.9,88.3,0,0,0,22
2021-03-22T00:21:00+09:00,1.2,�k�k��,4.2,�k��,8.8,87.5,0,0,0,22
2021-03-22T00:22:00+09:00,1.2,�k,4.2,�k��,8.8,87.2,0,0,0,22
2021-03-22T00:23:00+09:00,1.1,�k,4.2,�k��,8.8,87,0,0,0,22
2021-03-22T00:24:00+09:00,1.1,�k,3.4,�k��,8.8,86.7,0,0,0,22
2021-03-22T00:25:00+09:00,1,�k,3.4,�k��,8.8,86.7,0,0,0,22
2021-03-22T00:26:00+09:00,1.1,�k,3.4,�k��,8.8,86.3,0,0,0,22
2021-03-22T00:27:00+09:00,1.1,�k,3.4,�k��,8.8,86.2,0,0,0,22
2021-03-22T00:28:00+09:00,1.1,�k�k��,3.4,�k��,8.8,85.6,0,0,0,22
2021-03-22T00:29:00+09:00,1.2,�k,3.4,�k��,8.8,85.3,0,0,0,22
2021-03-22T00:30:00+09:00,1.2,�k�k��,3.4,�k��,8.8,84.6,0,0,0,22
2021-03-22T00:31:00+09:00,1.3,�k�k��,3.4,�k��,8.9,83.9,0,0,0,22
2021-03-22T00:32:00+09:00,1.3,�k,3.4,�k��,8.9,83.4,0,0,0,22
2021-03-22T00:33:00+09:00,1.4,�k�k��,4,�k�k��,8.9,82.7,0,0,0,22
2021-03-22T00:34:00+09:00,1.4,�k�k��,4,�k�k��,8.9,82.1,0,0,0,22
2021-03-22T00:35:00+09:00,1.5,�k,4,�k�k��,9,81.7,0,0,0,22
2021-03-22T00:36:00+09:00,1.5,�k,4,�k�k��,9,81.2,0,0,0,22
2021-03-22T00:37:00+09:00,1.6,�k,4,�k�k��,9,80.2,0,0,0,22
2021-03-22T00:38:00+09:00,1.6,�k�k��,4,�k�k��,8.9,79.6,0,0,0,22
2021-03-22T00:39:00+09:00,1.7,�k,4.6,�k�k��,9,78.7,0,0,0,22
2021-03-22T00:40:00+09:00,1.7,�k,4.6,�k�k��,8.9,78.9,0,0,0,22
2021-03-22T00:41:00+09:00,1.9,�k�k��,5.7,�k�k��,9,78.5,0,0,0,22
2021-03-22T00:42:00+09:00,2,�k�k��,5.7,�k�k��,9.1,77.4,0,0,0,22
2021-03-22T00:43:00+09:00,1.9,�k,5.7,�k�k��,9,77.5,0,0,0,22
2021-03-22T00:44:00+09:00,1.9,�k�k��,5.7,�k�k��,9,77.7,0,0,0,22
2021-03-22T00:45:00+09:00,1.8,�k�k��,5.7,�k�k��,9,77.2,0,0,0,22
2021-03-22T00:46:00+09:00,1.8,�k�k��,5.7,�k�k��,9,77.2,0,0,0,22
2021-03-22T00:47:00+09:00,1.7,�k�k��,5.7,�k�k��,8.9,77.4,0,0,0,22
2021-03-22T00:48:00+09:00,1.7,�k�k��,5.7,�k�k��,8.9,77.8,0,0,0,22
2021-03-22T00:49:00+09:00,1.8,�k�k��,5.7,�k�k��,8.9,77.9,0,0,0,22
2021-03-22T00:50:00+09:00,1.9,�k�k��,5.7,�k�k��,8.9,77.3,0,0,0,22
2021-03-22T00:51:00+09:00,1.7,�k�k��,4.9,�k��,9,77,0,0,0,22
2021-03-22T00:52:00+09:00,1.8,�k�k��,5.6,�k,8.9,77.2,0,0,0,22
2021-03-22T00:53:00+09:00,2,�k�k��,5.6,�k,8.9,76.7,0,0,0,22
2021-03-22T00:54:00+09:00,2.2,�k�k��,5.6,�k,8.9,76.7,0,0,0,22
2021-03-22T00:55:00+09:00,2.3,�k�k��,5.6,�k,8.8,76.9,0,0,0,22
2021-03-22T00:56:00+09:00,2.4,�k�k��,5.6,�k,8.8,77.3,0,0,0,22
2021-03-22T00:57:00+09:00,2.4,�k�k��,5.6,�k,8.8,77.4,0,0,0,22
2021-03-22T00:58:00+09:00,2.4,�k,5.6,�k,8.8,78,0,0,0,22
2021-03-22T00:59:00+09:00,2.2,�k,5.6,�k,8.7,77.8,0,0,0,22
2021-03-22T01:00:00+09:00,2,�k�k��,5.6,�k,8.7,77.4,0,0,0,22
2021-03-22T01:01:00+09:00,1.8,�k,5.6,�k,8.7,77.2,0,0,0,22
2021-03-22T01:02:00+09:00,1.8,�k,5.5,�k�k��,8.7,77.1,0,0,0,22
2021-03-22T01:03:00+09:00,1.7,�k�k��,5.8,�k�k��,8.7,76.3,0,0,0,22
2021-03-22T01:04:00+09:00,1.7,�k�k��,5.8,�k�k��,8.7,75.7,0,0,0,22
2021-03-22T01:05:00+09:00,1.7,�k�k��,5.8,�k�k��,8.8,75.5,0,0,0,22
2021-03-22T01:06:00+09:00,1.7,�k�k��,5.8,�k�k��,8.7,75.9,0,0,0,22
2021-03-22T01:07:00+09:00,1.8,�k�k��,5.8,�k�k��,8.7,76.7,0,0,0,22
2021-03-22T01:08:00+09:00,1.8,�k�k��,5.8,�k�k��,8.7,76.7,0,0,0,22
2021-03-22T01:09:00+09:00,1.9,�k�k��,5.8,�k�k��,8.6,76.3,0,0,0,22
2021-03-22T01:10:00+09:00,2,�k�k��,5.8,�k�k��,8.6,76.4,0,0,0,22
2021-03-22T01:11:00+09:00,2.1,�k�k��,5.8,�k�k��,8.5,76.4,0,0,0,22
2021-03-22T01:12:00+09:00,2.1,�k�k��,5.8,�k�k��,8.6,75.9,0,0,0,22
2021-03-22T01:13:00+09:00,1.8,�k�k��,5.1,�k��,8.6,76.4,0,0,0,22
2021-03-22T01:14:00+09:00,1.7,�k�k��,5.1,�k��,8.5,76.2,0,0,0,22
2021-03-22T01:15:00+09:00,1.6,�k�k��,5.1,�k��,8.5,76.3,0,0,0,22
2021-03-22T01:16:00+09:00,1.6,�k�k��,5.1,�k��,8.5,76.2,0,0,0,22
2021-03-22T01:17:00+09:00,1.5,�k�k��,5.1,�k��,8.6,75.6,0,0,0,22
2021-03-22T01:18:00+09:00,1.3,�k�k��,5.1,�k��,8.6,76.5,0,0,0,22
2021-03-22T01:19:00+09:00,1.3,�k�k��,5.1,�k��,8.5,76.5,0,0,0,22
2021-03-22T01:20:00+09:00,1.2,�k�k��,5.1,�k��,8.6,75.6,0,0,0,22
2021-03-22T01:21:00+09:00,1.3,�k�k��,5.3,�k�k��,8.6,75,0,0,0,22
2021-03-22T01:22:00+09:00,1.3,�k�k��,5.3,�k�k��,8.6,75.1,0,0,0,22
2021-03-22T01:23:00+09:00,1.4,�k�k��,5.3,�k�k��,8.5,75.5,0,0,0,22
2021-03-22T01:24:00+09:00,1.6,�k�k��,5.3,�k�k��,8.6,74.4,0,0,0,22
2021-03-22T01:25:00+09:00,1.6,�k�k��,5.3,�k�k��,8.7,73.3,0,0,0,22
2021-03-22T01:26:00+09:00,1.5,�k�k��,5.3,�k�k��,8.7,73.3,0,0,0,22
2021-03-22T01:27:00+09:00,1.6,�k�k��,5.3,�k�k��,8.7,73.7,0,0,0,22
2021-03-22T01:28:00+09:00,1.6,�k�k��,5.3,�k�k��,8.6,74.3,0,0,0,22
2021-03-22T01:29:00+09:00,1.7,�k�k��,5.3,�k�k��,8.6,73.7,0,0,0,22
2021-03-22T01:30:00+09:00,1.7,�k�k��,5.3,�k�k��,8.6,73.2,0,0,0,22
2021-03-22T01:31:00+09:00,1.5,�k�k��,4.6,�k�k��,8.6,73.8,0,0,0,22
2021-03-22T01:32:00+09:00,1.6,�k�k��,3.7,�k��,8.5,73.7,0,0,0,22
2021-03-22T01:33:00+09:00,1.6,�k�k��,3.7,�k��,8.6,73.4,0,0,0,22
2021-03-22T01:34:00+09:00,1.6,�k�k��,3.7,�k�k��,8.5,74.1,0,0,0,22
2021-03-22T01:35:00+09:00,1.5,�k�k��,3.7,�k�k��,8.4,74.6,0,0,0,22
2021-03-22T01:36:00+09:00,1.6,�k�k��,3.7,�k�k��,8.4,74.9,0,0,0,22
2021-03-22T01:37:00+09:00,1.5,�k�k��,3.7,�k�k��,8.4,74.5,0,0,0,22
2021-03-22T01:38:00+09:00,1.5,�k�k��,3.7,�k�k��,8.5,74.9,0,0,0,22
2021-03-22T01:39:00+09:00,1.4,�k�k��,3.7,�k�k��,8.5,75.2,0,0,0,22
2021-03-22T01:40:00+09:00,1.4,�k�k��,3.7,�k�k��,8.5,75.3,0,0,0,22
2021-03-22T01:41:00+09:00,1.5,�k�k��,3.7,�k�k��,8.5,75,0,0,0,22
2021-03-22T01:42:00+09:00,1.4,�k�k��,3.7,�k�k��,8.5,74.6,0,0,0,22
2021-03-22T01:43:00+09:00,1.3,�k�k��,3,�k�k��,8.4,75.1,0,0,0,22
2021-03-22T01:44:00+09:00,1.3,�k�k��,3,�k�k��,8.4,75.2,0,0,0,22
2021-03-22T01:45:00+09:00,1.3,�k�k��,3,�k�k��,8.4,75.4,0,0,0,22
2021-03-22T01:46:00+09:00,1.3,�k�k��,3.9,�k�k��,8.4,75.9,0,0,0,22
2021-03-22T01:47:00+09:00,1.3,�k�k��,3.9,�k�k��,8.4,75.3,0,0,0,22
2021-03-22T01:48:00+09:00,1.5,�k�k��,4.2,�k��,8.4,74.5,0,0,0,22
2021-03-22T01:49:00+09:00,1.4,�k�k��,4.2,�k��,8.5,75,0,0,0,22
2021-03-22T01:50:00+09:00,1.4,�k�k��,4.2,�k��,8.4,74.8,0,0,0,22
2021-03-22T01:51:00+09:00,1.4,�k�k��,4.2,�k��,8.4,74.5,0,0,0,22
2021-03-22T01:52:00+09:00,1.5,�k�k��,5.6,�k�k��,8.5,73.9,0,0,0,22
2021-03-22T01:53:00+09:00,1.5,�k�k��,5.6,�k�k��,8.5,73.9,0,0,0,22
2021-03-22T01:54:00+09:00,1.5,�k�k��,5.6,�k�k��,8.5,73.5,0,0,0,22
2021-03-22T01:55:00+09:00,1.5,�k�k��,5.6,�k�k��,8.6,73.1,0,0,0,22
2021-03-22T01:56:00+09:00,1.5,�k�k��,5.6,�k�k��,8.6,73.5,0,0,0,22
2021-03-22T01:57:00+09:00,1.6,�k�k��,5.6,�k�k��,8.5,73.6,0,0,0,22
2021-03-22T01:58:00+09:00,1.5,�k�k��,5.6,�k�k��,8.5,73.3,0,0,0,22
2021-03-22T01:59:00+09:00,1.5,�k�k��,5.6,�k�k��,8.5,73.3,0,0,0,22
2021-03-22T02:00:00+09:00,1.6,�k�k��,5.6,�k�k��,8.5,73.5,0,0,0,22
2021-03-22T02:01:00+09:00,1.5,�k�k��,5.6,�k�k��,8.5,73.7,0,0,0,22
2021-03-22T02:02:00+09:00,1.3,�k�k��,5.1,�k��,8.5,73.6,0,0,0,22
2021-03-22T02:03:00+09:00,1.2,�k�k��,4.9,�k�k��,8.5,74.4,0,0,0,22
2021-03-22T02:04:00+09:00,1.3,�k�k��,4.9,�k�k��,8.4,74.2,0,0,0,22
2021-03-22T02:05:00+09:00,1.4,�k�k��,4.9,�k�k��,8.4,73.8,0,0,0,22
2021-03-22T02:06:00+09:00,1.4,�k�k��,4,��,8.4,73.9,0,0,0,22
2021-03-22T02:07:00+09:00,1.4,�k�k��,3.7,���k��,8.4,74.1,0,0,0,22
2021-03-22T02:08:00+09:00,1.5,�k�k��,3.7,���k��,8.4,74.4,0,0,0,22
2021-03-22T02:09:00+09:00,1.5,�k�k��,3.7,���k��,8.4,74.2,0,0,0,22
2021-03-22T02:10:00+09:00,1.5,�k�k��,3.7,���k��,8.4,74.6,0,0,0,22
2021-03-22T02:11:00+09:00,1.6,�k�k��,3.7,���k��,8.3,75.4,0,0,0,22
2021-03-22T02:12:00+09:00,1.6,�k�k��,3.7,���k��,8.3,74.9,0,0,0,22
2021-03-22T02:13:00+09:00,1.6,�k�k��,3.7,���k��,8.3,75.2,0,0,0,22
2021-03-22T02:14:00+09:00,1.5,�k�k��,3.5,�k�k��,8.3,75.2,0,0,0,22
2021-03-22T02:15:00+09:00,1.6,�k�k��,4.1,�k��,8.2,75.1,0,0,0,22
2021-03-22T02:16:00+09:00,1.6,�k�k��,4.3,�k,8.2,75.3,0,0,0,22
2021-03-22T02:17:00+09:00,1.8,�k�k��,6.7,�k�k��,8.3,75.8,0,0,0,22
2021-03-22T02:18:00+09:00,1.7,�k,6.7,�k�k��,8.3,76.1,0,0,0,22
2021-03-22T02:19:00+09:00,1.7,�k,6.7,�k�k��,8.2,76,0,0,0,22
2021-03-22T02:20:00+09:00,1.8,�k�k��,6.7,�k�k��,8.1,76.2,0,0,0,22
2021-03-22T02:21:00+09:00,1.8,�k,6.7,�k�k��,8.2,76.6,0,0,0,22
2021-03-22T02:22:00+09:00,1.7,�k,6.7,�k�k��,8.1,76.9,0,0,0,22
2021-03-22T02:23:00+09:00,1.8,�k,6.7,�k�k��,8.1,77.6,0,0,0,22
2021-03-22T02:24:00+09:00,1.9,�k,6.7,�k�k��,8,77.5,0,0,0,22
2021-03-22T02:25:00+09:00,1.8,�k,6.7,�k�k��,8,77.1,0,0,0,22
2021-03-22T02:26:00+09:00,1.8,�k,6.7,�k�k��,8.1,77.4,0,0,0,22
2021-03-22T02:27:00+09:00,1.6,�k,4.5,�k�k��,8,78.2,0,0,0,22
2021-03-22T02:28:00+09:00,1.6,�k,4.5,�k�k��,7.9,77.2,0,0,0,22
2021-03-22T02:29:00+09:00,1.6,�k,4.5,�k�k��,7.9,77,0,0,0,22
2021-03-22T02:30:00+09:00,1.5,�k�k��,4.5,�k�k��,8,77.7,0,0,0,22
2021-03-22T02:31:00+09:00,1.5,�k�k��,4.5,�k�k��,7.8,77.9,0,0,0,22
2021-03-22T02:32:00+09:00,1.6,�k�k��,4.5,�k�k��,7.9,78.2,0,0,0,22
2021-03-22T02:33:00+09:00,1.6,�k,4.3,�k��,8,77.1,0,0,0,22
2021-03-22T02:34:00+09:00,1.4,�k,4.3,�k��,7.9,77.4,0,0,0,22
2021-03-22T02:35:00+09:00,1.4,�k,4.3,�k��,7.9,77.5,0,0,0,22
2021-03-22T02:36:00+09:00,1.4,�k,4.3,�k��,8,77.7,0,0,0,22
2021-03-22T02:37:00+09:00,1.3,�k,4.3,�k��,7.9,77.1,0,0,0,22
2021-03-22T02:38:00+09:00,1.3,�k,4.3,�k��,7.9,76.5,0,0,0,22
2021-03-22T02:39:00+09:00,1.2,�k,4.3,�k��,7.9,76.8,0,0,0,22
2021-03-22T02:40:00+09:00,1.1,�k�k��,4.3,�k��,7.8,77.5,0,0,0,22
2021-03-22T02:41:00+09:00,1.1,�k�k��,4.3,�k��,7.8,77.7,0,0,0,22
2021-03-22T02:42:00+09:00,0.9,�k�k��,3.7,���k��,7.8,77.5,0,0,0,22
2021-03-22T02:43:00+09:00,0.8,�k�k��,3.2,�k�k��,7.8,77.5,0,0,0,22
2021-03-22T02:44:00+09:00,0.8,�k�k��,3.2,�k�k��,7.8,77.8,0,0,0,22
2021-03-22T02:45:00+09:00,0.8,�k�k��,3.2,�k�k��,7.8,77.8,0,0,0,22
2021-03-22T02:46:00+09:00,0.7,�k�k��,3.4,�k��,7.8,77.8,0,0,0,22
2021-03-22T02:47:00+09:00,0.7,�k�k��,3.4,�k��,7.8,77,0,0,0,22
2021-03-22T02:48:00+09:00,0.7,�k�k��,3.4,�k��,7.7,76.9,0,0,0,22
2021-03-22T02:49:00+09:00,0.8,�k��,3.4,�k��,7.7,77.5,0,0,0,22
2021-03-22T02:50:00+09:00,0.9,�k�k��,3.4,�k��,7.7,77.4,0,0,0,22
2021-03-22T02:51:00+09:00,0.9,�k�k��,3.4,�k��,7.7,78,0,0,0,22
2021-03-22T02:52:00+09:00,0.9,�k�k��,3.4,�k��,7.6,78.2,0,0,0,22
2021-03-22T02:53:00+09:00,1,�k�k��,3.4,�k��,7.6,78,0,0,0,22
2021-03-22T02:54:00+09:00,1.1,�k�k��,3.4,�k��,7.6,78.2,0,0,0,22
2021-03-22T02:55:00+09:00,1.2,�k�k��,3.9,�k�k��,7.8,76.9,0,0,0,22
2021-03-22T02:56:00+09:00,1.3,�k�k��,3.9,�k�k��,7.8,75.7,0,0,0,22
2021-03-22T02:57:00+09:00,1.4,�k�k��,3.9,�k�k��,7.9,75,0,0,0,22
2021-03-22T02:58:00+09:00,1.3,�k�k��,3.9,�k�k��,7.8,75.6,0,0,0,22
2021-03-22T02:59:00+09:00,1.2,�k�k��,3.9,�k�k��,7.8,75.6,0,0,0,22
2021-03-22T03:00:00+09:00,1.2,�k�k��,3.9,�k�k��,7.7,76.2,0,0,0,22
2021-03-22T03:01:00+09:00,1.2,�k�k��,3.9,�k�k��,7.7,76.3,0,0,0,22
2021-03-22T03:02:00+09:00,1.2,�k�k��,3.9,�k�k��,7.8,75.7,0,0,0,22
2021-03-22T03:03:00+09:00,1.1,�k�k��,3.9,�k�k��,7.7,76,0,0,0,22
2021-03-22T03:04:00+09:00,1.1,�k�k��,3.9,�k�k��,7.7,76,0,0,0,22
2021-03-22T03:05:00+09:00,0.9,�k�k��,3.3,���k��,7.8,76.4,0,0,0,22
2021-03-22T03:06:00+09:00,0.9,�k�k��,3.1,���k��,7.8,76.7,0,0,0,22
2021-03-22T03:07:00+09:00,0.8,�k,1.8,�k�k��,7.8,77.3,0,0,0,22
2021-03-22T03:08:00+09:00,0.8,�k�k��,2.8,�k�k��,7.7,77,0,0,0,22
2021-03-22T03:09:00+09:00,0.9,�k,2.8,�k�k��,7.7,76.3,0,0,0,22
2021-03-22T03:10:00+09:00,1,�k�k��,3.5,���k��,7.7,76.1,0,0,0,22
2021-03-22T03:11:00+09:00,1,�k,3.5,���k��,7.6,76.1,0,0,0,22
2021-03-22T03:12:00+09:00,1,�k,3.5,���k��,7.7,76.3,0,0,0,22
2021-03-22T03:13:00+09:00,1,�k,3.5,���k��,7.7,76.8,0,0,0,22
2021-03-22T03:14:00+09:00,1,�k,3.5,���k��,7.7,76.7,0,0,0,22
2021-03-22T03:15:00+09:00,1.1,�k�k��,3.5,���k��,7.7,75.7,0,0,0,22
2021-03-22T03:16:00+09:00,1,�k�k��,3.5,���k��,7.7,75.9,0,0,0,22
2021-03-22T03:17:00+09:00,1,�k�k��,3.5,���k��,7.8,76.4,0,0,0,22
2021-03-22T03:18:00+09:00,1,�k�k��,3.5,���k��,7.7,75.7,0,0,0,22
2021-03-22T03:19:00+09:00,0.9,�k�k��,3.5,���k��,7.6,75.6,0,0,0,22
2021-03-22T03:20:00+09:00,0.8,�k�k��,2.7,�k�k��,7.7,76.6,0,0,0,22
2021-03-22T03:21:00+09:00,0.8,�k�k��,2.7,�k�k��,7.6,76.5,0,0,0,22
2021-03-22T03:22:00+09:00,0.7,�k��,2.7,�k�k��,7.6,77.3,0,0,0,22
2021-03-22T03:23:00+09:00,0.8,�k��,2.9,��,7.7,77.5,0,0,0,22
2021-03-22T03:24:00+09:00,0.8,�k��,3,���k��,7.6,77.2,0,0,0,22
2021-03-22T03:25:00+09:00,0.8,�k�k��,3,���k��,7.7,77.5,0,0,0,22
2021-03-22T03:26:00+09:00,0.9,�k,4.7,�k��,7.7,77.8,0,0,0,22
2021-03-22T03:27:00+09:00,0.9,�k,4.7,�k��,7.6,77.4,0,0,0,22
2021-03-22T03:28:00+09:00,0.9,�k��,4.7,�k��,7.6,77.7,0,0,0,22
2021-03-22T03:29:00+09:00,0.9,�k�k��,4.7,�k��,7.6,77.6,0,0,0,22
2021-03-22T03:30:00+09:00,0.9,�k��,4.7,�k��,7.6,77.9,0,0,0,22
2021-03-22T03:31:00+09:00,0.9,�k��,4.7,�k��,7.6,77.8,0,0,0,22
2021-03-22T03:32:00+09:00,1,�k�k��,4.7,�k��,7.5,76.8,0,0,0,22
2021-03-22T03:33:00+09:00,1.1,�k�k��,4.7,�k��,7.5,77.3,0,0,0,22
2021-03-22T03:34:00+09:00,1.1,�k�k��,4.7,�k��,7.5,77.6,0,0,0,22
2021-03-22T03:35:00+09:00,1.2,�k,4.8,�k��,7.5,76.1,0,0,0,22
2021-03-22T03:36:00+09:00,1.2,�k,4.8,�k��,7.5,75.6,0,0,0,22
2021-03-22T03:37:00+09:00,1.2,�k�k��,4.8,�k��,7.5,75.7,0,0,0,22
2021-03-22T03:38:00+09:00,1.2,�k�k��,4.8,�k��,7.5,75.8,0,0,0,22
2021-03-22T03:39:00+09:00,1.5,�k�k��,6.9,�k��,7.5,75.9,0,0,0,22
2021-03-22T03:40:00+09:00,1.5,�k�k��,6.9,�k��,7.6,76.1,0,0,0,22
2021-03-22T03:41:00+09:00,1.6,�k�k��,6.9,�k��,7.5,75.7,0,0,0,22
2021-03-22T03:42:00+09:00,1.7,�k�k��,6.9,�k��,7.4,75.4,0,0,0,22
2021-03-22T03:43:00+09:00,1.6,�k�k��,6.9,�k��,7.4,75.7,0,0,0,22
2021-03-22T03:44:00+09:00,1.7,�k�k��,6.9,�k��,7.4,75.9,0,0,0,22
2021-03-22T03:45:00+09:00,1.8,�k�k��,6.9,�k��,7.4,75.1,0,0,0,22
2021-03-22T03:46:00+09:00,1.7,�k,6.9,�k��,7.4,74.5,0,0,0,22
2021-03-22T03:47:00+09:00,1.7,�k,6.9,�k��,7.4,74.9,0,0,0,22
2021-03-22T03:48:00+09:00,1.7,�k,6.9,�k��,7.4,75.1,0,0,0,22
2021-03-22T03:49:00+09:00,1.6,�k�k��,5.1,�k��,7.4,75,0,0,0,22
2021-03-22T03:50:00+09:00,1.6,�k�k��,5.1,�k��,7.3,76.1,0,0,0,22
2021-03-22T03:51:00+09:00,1.6,�k,6,��,7.3,76,0,0,0,22
2021-03-22T03:52:00+09:00,1.6,�k,6,��,7.3,76.3,0,0,0,22
2021-03-22T03:53:00+09:00,1.6,�k,6,��,7.3,77,0,0,0,22
2021-03-22T03:54:00+09:00,1.4,�k�k��,6,��,7.3,77.1,0,0,0,22
2021-03-22T03:55:00+09:00,1.2,�k�k��,6,��,7.2,77,0,0,0,22
2021-03-22T03:56:00+09:00,1.2,�k,6,��,7.2,77.9,0,0,0,22
2021-03-22T03:57:00+09:00,1.3,�k�k��,6,��,7.1,77.8,0,0,0,22
2021-03-22T03:58:00+09:00,1.2,�k�k��,6,��,7.1,77.9,0,0,0,22
2021-03-22T03:59:00+09:00,1.2,�k�k��,6,��,7.1,77.5,0,0,0,22
2021-03-22T04:00:00+09:00,1.2,�k,6,��,7.2,78,0,0,0,22
2021-03-22T04:01:00+09:00,1.1,�k�k��,4.4,�k��,7.3,78.3,0,0,0,22
2021-03-22T04:02:00+09:00,1.1,�k�k��,4.4,�k��,7.2,77.9,0,0,0,22
2021-03-22T04:03:00+09:00,1.1,�k�k��,4.4,�k��,7.1,77.1,0,0,0,22
2021-03-22T04:04:00+09:00,1.2,�k�k��,4.4,�k��,7.1,77.1,0,0,0,22
2021-03-22T04:05:00+09:00,1.3,�k�k��,4.4,�k��,7.1,77.5,0,0,0,22
2021-03-22T04:06:00+09:00,1.3,�k�k��,4.4,�k��,7.1,77.7,0,0,0,22
2021-03-22T04:07:00+09:00,1.3,�k�k��,4.4,�k��,7.1,77.5,0,0,0,22
2021-03-22T04:08:00+09:00,1.3,�k�k��,4.4,�k��,7.2,78.1,0,0,0,22
2021-03-22T04:09:00+09:00,1.4,�k�k��,4.3,�k�k��,7.1,77.7,0,0,0,22
2021-03-22T04:10:00+09:00,1.3,�k��,4.3,�k�k��,7.1,77.1,0,0,0,22
2021-03-22T04:11:00+09:00,1.4,�k�k��,4.3,�k�k��,7.2,76.4,0,0,0,22
2021-03-22T04:12:00+09:00,1.4,�k�k��,5.1,���k��,7.2,76,0,0,0,22
2021-03-22T04:13:00+09:00,1.5,�k�k��,5.1,���k��,7.2,76.4,0,0,0,22
2021-03-22T04:14:00+09:00,1.6,�k�k��,5.1,���k��,7.1,76.4,0,0,0,22
2021-03-22T04:15:00+09:00,1.5,�k�k��,5.1,���k��,7.1,75.5,0,0,0,22
2021-03-22T04:16:00+09:00,1.5,�k�k��,5.1,���k��,7.1,75.9,0,0,0,22
2021-03-22T04:17:00+09:00,1.6,�k�k��,5.1,���k��,7,75.8,0,0,0,22
2021-03-22T04:18:00+09:00,1.7,�k�k��,5.1,���k��,7.1,75.1,0,0,0,22
2021-03-22T04:19:00+09:00,1.6,�k�k��,5.1,���k��,7.1,75.2,0,0,0,22
2021-03-22T04:20:00+09:00,1.8,�k�k��,5.1,���k��,7.1,74.4,0,0,0,22
2021-03-22T04:21:00+09:00,1.8,�k�k��,5.1,���k��,7.2,74.6,0,0,0,22
2021-03-22T04:22:00+09:00,1.7,�k�k��,4.3,���k��,7.1,74.7,0,0,0,22
2021-03-22T04:23:00+09:00,1.6,�k�k��,4.3,���k��,7.1,74.5,0,0,0,22
2021-03-22T04:24:00+09:00,1.6,�k�k��,4.3,���k��,7.1,73.9,0,0,0,22
2021-03-22T04:25:00+09:00,1.6,�k�k��,4.3,���k��,7.1,73.1,0,0,0,22
2021-03-22T04:26:00+09:00,1.6,�k�k��,4.3,���k��,7.1,73.8,0,0,0,22
2021-03-22T04:27:00+09:00,1.5,�k�k��,4.3,���k��,7.1,73.6,0,0,0,22
2021-03-22T04:28:00+09:00,1.4,�k�k��,3.8,���k��,7.1,74.1,0,0,0,22
2021-03-22T04:29:00+09:00,1.4,�k�k��,3.8,���k��,7.1,73.9,0,0,0,22
2021-03-22T04:30:00+09:00,1.3,�k�k��,3.4,�k��,7.1,73.6,0,0,0,22
2021-03-22T04:31:00+09:00,1.4,�k�k��,4.3,�k�k��,7.1,72.9,0,0,0,22
2021-03-22T04:32:00+09:00,1.5,�k�k��,4.3,�k�k��,7.1,72.4,0,0,0,22
2021-03-22T04:33:00+09:00,1.5,�k�k��,4.3,�k�k��,7,72.8,0,0,0,22
2021-03-22T04:34:00+09:00,1.4,�k�k��,4.3,�k�k��,7,73.5,0,0,0,22
2021-03-22T04:35:00+09:00,1.5,�k�k��,4.3,�k�k��,7,73.4,0,0,0,22
2021-03-22T04:36:00+09:00,1.6,�k�k��,4.3,�k�k��,7,73.9,0,0,0,22
2021-03-22T04:37:00+09:00,1.6,�k�k��,4.3,�k�k��,7,73.7,0,0,0,22
2021-03-22T04:38:00+09:00,1.7,�k��,4.7,���k��,7,73.2,0,0,0,22
2021-03-22T04:39:00+09:00,1.8,�k��,4.7,���k��,7,73.1,0,0,0,22
2021-03-22T04:40:00+09:00,1.7,�k��,4.7,���k��,7,73.1,0,0,0,22
2021-03-22T04:41:00+09:00,1.6,�k�k��,4.7,���k��,7,72.7,0,0,0,22
2021-03-22T04:42:00+09:00,1.4,�k�k��,4.7,���k��,6.9,73.5,0,0,0,22
2021-03-22T04:43:00+09:00,1.3,�k�k��,4.7,���k��,6.9,74,0,0,0,22
2021-03-22T04:44:00+09:00,1.3,�k��,4.7,���k��,6.9,73.7,0,0,0,22
2021-03-22T04:45:00+09:00,1.2,�k��,4.7,���k��,6.9,73.5,0,0,0,22
2021-03-22T04:46:00+09:00,1.1,�k��,4.7,���k��,6.9,73.5,0,0,0,22
2021-03-22T04:47:00+09:00,1.1,�k��,4.7,���k��,6.8,73.9,0,0,0,22
2021-03-22T04:48:00+09:00,1.1,�k��,3.1,�k�k��,6.7,74.8,0,0,0,22
2021-03-22T04:49:00+09:00,0.9,�k��,2.3,��,6.8,74.1,0,0,0,22
2021-03-22T04:50:00+09:00,0.9,�k��,2.3,��,6.8,74,0,0,0,22
2021-03-22T04:51:00+09:00,0.8,�k��,2.3,��,6.8,74,0,0,0,22
2021-03-22T04:52:00+09:00,0.9,�k��,2.3,��,6.8,74.1,0,0,0,22
2021-03-22T04:53:00+09:00,1,�k��,2.5,�k��,6.8,74.1,0,0,0,22
2021-03-22T04:54:00+09:00,1,�k��,2.5,�k��,6.7,74.5,0,0,0,22
2021-03-22T04:55:00+09:00,1.1,�k��,2.5,�k��,6.7,74.8,0,0,0,22
2021-03-22T04:56:00+09:00,1,�k��,2.5,�k��,6.7,75,0,0,0,22
2021-03-22T04:57:00+09:00,1.1,�k��,2.5,�k��,6.6,74.9,0,0,0,22
2021-03-22T04:58:00+09:00,1.1,�k��,2.5,�k��,6.6,75.1,0,0,0,22
2021-03-22T04:59:00+09:00,1,�k�k��,2.5,�k��,6.6,75.4,0,0,0,22
2021-03-22T05:00:00+09:00,1.1,�k�k��,2.5,�k��,6.6,75.4,0,0,0,22
2021-03-22T05:01:00+09:00,1.1,�k�k��,2.5,�k��,6.6,75.4,0,0,0,22
2021-03-22T05:02:00+09:00,1.1,�k�k��,2.5,�k��,6.5,75.9,0,0,0,22
2021-03-22T05:03:00+09:00,1,�k�k��,2.1,�k�k��,6.5,76.1,0,0,0,22
2021-03-22T05:04:00+09:00,1,�k��,2.1,�k�k��,6.6,76,0,0,0,22
2021-03-22T05:05:00+09:00,1,�k��,2.1,�k�k��,6.6,76.2,0,0,0,22
2021-03-22T05:06:00+09:00,1,�k��,2.1,�k�k��,6.5,76.9,0,0,0,22
2021-03-22T05:07:00+09:00,0.9,�k��,2,�k��,6.5,77.5,0,0,0,22
2021-03-22T05:08:00+09:00,0.8,�k��,1.8,�k�k��,6.4,77.6,0,0,0,22
2021-03-22T05:09:00+09:00,0.9,�k��,1.8,�k�k��,6.3,77.9,0,0,0,22
2021-03-22T05:10:00+09:00,0.8,�k��,1.8,�k�k��,6.3,78.4,0,0,0,22
2021-03-22T05:11:00+09:00,0.8,�k��,1.8,�k�k��,6.3,79.1,0,0,0,22
2021-03-22T05:12:00+09:00,0.7,�k��,1.8,�k�k��,6.3,79.8,0,0,0,22
2021-03-22T05:13:00+09:00,0.6,�k��,1.5,�k��,6.2,80.4,0,0,0,22
2021-03-22T05:14:00+09:00,0.6,�k��,1.4,�k�k��,6,81,0,0,0,22
2021-03-22T05:15:00+09:00,0.6,���k��,1.4,�k�k��,5.9,81.5,0,0,0,22
2021-03-22T05:16:00+09:00,0.6,���k��,1.6,���k��,5.8,82.4,0,0,0,22
2021-03-22T05:17:00+09:00,0.6,���k��,1.6,���k��,5.9,83.1,0,0,0,22
2021-03-22T05:18:00+09:00,0.6,���k��,1.6,���k��,5.9,83.8,0,0,0,22
2021-03-22T05:19:00+09:00,0.6,���k��,1.6,���k��,6,84.4,0,0,0,22
2021-03-22T05:20:00+09:00,0.6,���k��,1.6,���k��,5.9,84.4,0,0,0,22
2021-03-22T05:21:00+09:00,0.5,���k��,1.6,���k��,5.9,84.6,0,0,0,22
2021-03-22T05:22:00+09:00,0.5,���k��,1.6,���k��,5.8,84.6,0,0,0,22
2021-03-22T05:23:00+09:00,0.5,�k��,1.6,���k��,5.9,84.9,0,0,0,22
2021-03-22T05:24:00+09:00,0.4,�k��,1.6,���k��,6.1,85.6,0,0,0,22
2021-03-22T05:25:00+09:00,0.4,�k��,1.6,���k��,6.2,86.1,0,0,0,22
2021-03-22T05:26:00+09:00,0.3,�k��,0.9,��,6.1,84.5,0,0,0,22
2021-03-22T05:27:00+09:00,0.3,�k��,0.7,�k��,6.1,84.1,0,0,0,22
2021-03-22T05:28:00+09:00,0.3,�k��,0.7,�k��,6,84.1,0,0,0,22
2021-03-22T05:29:00+09:00,0.3,�k��,0.9,�k�k��,6,83.8,0,0,0,22
2021-03-22T05:30:00+09:00,0.2,�É�,0.9,�k�k��,6.3,84.5,0,0,0,22
2021-03-22T05:31:00+09:00,0.2,�É�,0.9,�k�k��,6.5,84.7,0,0,0,22
2021-03-22T05:32:00+09:00,0.2,�É�,0.9,�k�k��,6.4,84.4,0,0,0,22
2021-03-22T05:33:00+09:00,0.2,�É�,0.9,�k�k��,6.3,83.4,0,0,0,22
2021-03-22T05:34:00+09:00,0.2,�É�,0.9,�k�k��,6,83.5,0,0,0,22
2021-03-22T05:35:00+09:00,0.2,�É�,0.9,�k�k��,5.9,84,0,0,0,22
2021-03-22T05:36:00+09:00,0.3,���k��,1.4,���k��,5.8,84.3,0,0,0,22
2021-03-22T05:37:00+09:00,0.4,��,1.6,��,5.7,84.7,0,0,0,22
2021-03-22T05:38:00+09:00,0.4,��,1.6,��,5.7,85.3,0,0,0,22
2021-03-22T05:39:00+09:00,0.3,���쓌,1.6,��,5.9,86.4,0,0,0,22
2021-03-22T05:40:00+09:00,0.4,���쓌,1.6,��,6.1,87.2,0,0,0,22
2021-03-22T05:41:00+09:00,0.4,��,1.6,��,6.2,86.8,0,0,0,22
2021-03-22T05:42:00+09:00,0.5,��,1.7,�k�k��,6.3,86.1,0,0,0,22
2021-03-22T05:43:00+09:00,0.6,���k��,1.8,�k��,6,84.6,0,0,0,22
2021-03-22T05:44:00+09:00,0.7,���k��,1.8,�k��,6,84.3,0,0,0,22
2021-03-22T05:45:00+09:00,0.7,�k��,1.8,�k��,6.2,84.1,0,0,0,22
2021-03-22T05:46:00+09:00,0.7,�k��,1.8,�k��,6.1,84.2,0,0,0,22
2021-03-22T05:47:00+09:00,0.6,�k�k��,1.8,�k��,6.3,83.8,0,0,0,22
2021-03-22T05:48:00+09:00,0.6,�k,1.8,�k��,6.5,83.4,0,0,0,22
2021-03-22T05:49:00+09:00,0.6,�k�k��,1.8,�k��,6.4,82.6,0,0,0,22
2021-03-22T05:50:00+09:00,0.7,�k�k��,1.8,�k��,6.4,81.4,0,0,0,22
2021-03-22T05:51:00+09:00,0.7,�k��,1.8,�k��,6.5,80.4,0,0,0,22
2021-03-22T05:52:00+09:00,0.7,�k�k��,2.8,�k�k��,6.5,80.2,0,0,0,22
2021-03-22T05:53:00+09:00,0.7,�k�k��,2.8,�k�k��,6.7,79.3,0,0,0,22
2021-03-22T05:54:00+09:00,0.6,�k�k��,2.8,�k�k��,6.5,78.5,0,0,0,22
2021-03-22T05:55:00+09:00,0.6,�k�k��,2.8,�k�k��,6.5,79,0,0,0,22
2021-03-22T05:56:00+09:00,0.7,�k�k��,2.8,�k�k��,6.4,79.2,0,0,0,22
2021-03-22T05:57:00+09:00,0.7,�k��,2.8,�k�k��,6.3,79.7,0,0,0,22
2021-03-22T05:58:00+09:00,0.7,�k��,2.8,�k�k��,6.1,80.6,0,0,0,22
2021-03-22T05:59:00+09:00,0.8,�k��,2.8,�k�k��,6.2,81.5,0,0,0,22
2021-03-22T06:00:00+09:00,0.8,�k��,2.8,�k�k��,6.5,80,0,0,0,22
2021-03-22T06:01:00+09:00,0.8,�k��,2.8,�k�k��,6.6,79.2,0,0,0,22
2021-03-22T06:02:00+09:00,0.7,�k��,2.5,�k��,6.7,78.6,0,0,0,22
2021-03-22T06:03:00+09:00,0.8,�k��,2.5,�k��,6.5,78.1,0,0,0,22
2021-03-22T06:04:00+09:00,0.8,�k��,2.5,�k��,6.4,78.1,0,0,0,22
2021-03-22T06:05:00+09:00,0.8,�k�k��,2.8,�k�k��,6.5,78.5,0,0,0,22
2021-03-22T06:06:00+09:00,0.9,�k�k��,2.8,�k�k��,6.5,77.8,0,0,0,22
2021-03-22T06:07:00+09:00,0.8,�k�k��,2.8,�k�k��,6.6,77.1,0,0,0,22
2021-03-22T06:08:00+09:00,1,�k�k��,4.2,�k��,6.7,76,0,0,0,22
2021-03-22T06:09:00+09:00,1.2,�k,5,�k��,6.7,75.1,0,0,0,22
2021-03-22T06:10:00+09:00,1.2,�k,5,�k��,6.6,75,0,0,0,22
2021-03-22T06:11:00+09:00,1.3,�k�k��,5,�k��,6.7,75,0,0,0,22
2021-03-22T06:12:00+09:00,1.4,�k�k��,5,�k��,6.8,74.6,0,0,0,22
2021-03-22T06:13:00+09:00,1.5,�k�k��,5,�k��,6.8,73.9,0,0,0,22
2021-03-22T06:14:00+09:00,1.5,�k�k��,5,�k��,6.8,73.7,0,0,0,22
2021-03-22T06:15:00+09:00,1.6,�k�k��,5,�k��,6.6,74.2,0,0,0,22
2021-03-22T06:16:00+09:00,1.6,�k�k��,5,�k��,6.7,74.3,0,0,0,22
2021-03-22T06:17:00+09:00,1.7,�k�k��,5,�k��,6.8,73.8,0,0,0,22